OneWeb SL0296

operational
NORAD ID: 49085 Int'l Des: 2021-075 Owner: ONEWEBN Country: UK Constellation: oneweb
LEOCIRCULARPOLARONEWEB_TYPE

About OneWeb SL0296

Description loading...

Live Position

Loading 3D Globe...

Upcoming Passes

Altitude History

Altitude vs Time

uPlot chart will show altitude changes over time

Two-Line Element Set

1 49085U 21075L 25258.17003922 .00000441 00000-0 11904-2 0 9993
2 49085 87.8904 45.2990 0002071 108.2612 251.8742 13.12443776198503
Epoch: Sep 15, 2025 • Age: 9 hours

Current Status

Altitude 1216.9 km
Velocity 7.25 km/s
Sub-Earth Point 28.60°N, 149°W
Launch Date Aug 21, 2021
Age 4 years
Type internet

Technical Details

Classification Payload
Mass 148.00 kg
Dry Mass 140.00 kg
Total Mass 148.00 kg
Length 1.30 m
Diameter 1.00 m
Span 5.00 m
Shape Trapezoid+2 pan
Manufacturer ONEWUS
Bus Type ARROW
Phase Status In Orbit
Owner/State ONEWEBN/UK

Large Constellations

Loading constellations...